Date,TemperatureHighF,TemperatureAvgF,TemperatureLowF,DewpointHighF,DewpointAvgF,DewpointLowF,HumidityHigh,HumidityAvg,HumidityLow,PressureMaxIn,PressureMinIn,WindSpeedMaxMPH,WindSpeedAvgMPH,GustSpeedMaxMPH,PrecipitationSumIn
2013-1-1,48,46,44,47,41,30,97,82,51,30.12,29.93,2,0,10,0.25
2013-1-2,48,43,39,47,42,38,98,94,84,30.21,29.93,2,0,5,0.21
2013-1-3,44,39,30,39,37,29,100,92,78,30.27,30.16,0,0,4,0.00
2013-1-4,50,38,28,33,28,24,96,71,41,30.34,30.21,3,0,7,0.00
2013-1-5,52,38,28,34,28,24,88,68,41,30.40,30.27,1,0,4,0.00
2013-1-6,50,43,35,40,37,33,95,80,62,30.27,30.07,1,0,5,0.01
2013-1-7,54,38,28,36,32,27,100,80,49,30.46,30.19,3,0,7,0.00
2013-1-8,55,40,29,42,36,28,96,84,55,30.49,30.39,0,0,2,0.00
2013-1-9,69,49,34,54,44,32,98,84,58,30.47,30.36,2,0,6,0.00
2013-1-10,63,53,47,49,44,36,96,74,51,30.54,30.42,2,0,7,0.00
2013-1-11,51,47,42,50,43,33,98,87,60,30.46,30.16,1,0,4,0.14
2013-1-12,70,57,49,64,56,49,99,95,77,30.18,30.10,0,0,3,0.01
2013-1-13,75,63,55,64,59,55,99,89,65,30.14,30.05,2,0,11,0.00
2013-1-14,68,63,55,63,60,53,98,91,79,30.15,30.07,3,0,7,0.12
2013-1-15,54,45,43,53,44,42,98,97,95,30.25,30.07,4,0,11,0.02
2013-1-16,50,46,42,49,45,42,99,98,98,30.09,29.98,0,0,3,0.14
2013-1-17,50,46,34,50,45,33,99,98,95,30.14,29.91,5,1,14,0.85
2013-1-18,46,36,29,36,31,26,98,86,48,30.55,30.15,1,0,6,0.19
2013-1-19,56,37,25,35,30,24,97,77,38,30.52,30.17,1,0,5,0.00
2013-1-20,64,48,34,39,35,32,91,64,36,30.17,29.99,3,0,10,0.00
2013-1-21,61,43,29,36,30,23,97,64,32,30.10,29.86,2,0,9,0.00
2013-1-22,41,34,23,24,11,4,59,40,25,30.31,29.95,2,0,7,0.00
2013-1-23,41,28,17,19,14,8,84,58,33,30.40,30.08,2,0,9,0.00
2013-1-24,37,31,23,27,16,8,78,56,34,30.55,29.97,5,1,13,0.00
2013-1-25,28,25,20,28,17,7,100,74,48,30.55,30.13,0,0,4,0.01
2013-1-26,36,31,27,33,29,26,96,94,89,30.42,30.11,0,0,3,0.11
2013-1-27,42,31,22,31,26,21,97,84,62,30.63,30.42,1,0,6,0.13
2013-1-28,51,42,29,48,37,27,96,85,62,30.53,30.23,1,0,7,0.02
2013-1-29,74,59,48,59,53,47,95,81,57,30.24,30.06,2,0,9,0.00
2013-1-30,71,67,59,65,62,57,95,86,77,30.06,29.35,6,2,22,0.27
2013-1-31,65,48,34,63,33,23,93,59,37,30.01,29.41,6,2,16,0.35
2013-2-1,41,35,25,30,17,8,74,50,30,30.41,29.87,4,1,14,0.00
2013-2-2,45,33,19,33,16,10,81,52,32,30.42,30.05,3,0,14,0.00
2013-2-3,50,42,35,37,31,26,92,68,44,30.04,29.85,2,0,9,0.00
2013-2-4,49,38,26,28,25,22,88,62,38,30.16,30.01,2,0,6,0.00
2013-2-5,60,46,36,39,34,28,88,63,41,30.02,29.89,2,0,9,0.00
2013-2-6,63,45,30,38,31,28,96,64,28,30.31,29.98,2,0,6,0.00
2013-2-7,48,42,36,42,37,34,96,84,70,30.35,30.02,4,1,9,0.48
2013-2-8,54,45,39,47,41,31,97,85,61,30.04,29.81,4,1,12,0.37
2013-2-9,54,40,28,31,26,21,89,62,29,30.37,30.03,2,0,6,0.00
2013-2-10,54,40,27,41,25,19,87,57,32,30.51,30.23,2,0,9,0.03
2013-2-11,63,55,44,60,53,41,98,93,88,30.23,29.91,3,0,12,0.03
2013-2-12,61,53,45,54,39,31,91,61,33,30.08,29.92,3,0,7,0.00
2013-2-13,47,46,42,46,44,38,97,94,79,29.96,29.63,1,0,6,0.37
2013-2-14,53,41,31,38,34,30,100,80,49,30.08,29.83,1,0,6,0.01
2013-2-15,63,44,29,42,34,28,100,74,35,30.11,29.94,2,0,9,0.00
2013-2-16,46,37,32,38,34,30,96,89,70,29.98,29.84,1,0,4,0.17
2013-2-17,38,30,23,30,18,12,94,62,35,30.30,29.92,4,0,12,0.00
2013-2-18,53,34,18,28,21,15,94,62,29,30.44,30.28,2,0,11,0.00
2013-2-19,52,43,32,50,39,28,96,86,61,30.28,29.87,4,0,12,0.09
2013-2-20,53,42,33,39,24,17,95,52,25,30.16,29.97,3,0,10,0.00
2013-2-21,55,40,26,29,23,19,85,53,29,30.28,30.13,2,0,6,0.00
2013-2-22,42,36,32,36,32,23,96,85,48,30.37,30.16,3,0,9,0.24
2013-2-23,44,40,36,43,39,35,98,97,96,30.16,29.82,1,0,4,0.46
2013-2-24,63,49,38,48,41,33,99,76,35,30.04,29.80,2,0,7,0.06
2013-2-25,42,37,32,33,27,23,89,66,50,30.24,30.04,3,0,7,0.00
2013-2-26,57,45,35,56,42,27,98,89,69,30.17,29.57,4,1,14,0.79
2013-2-27,61,50,42,47,42,38,97,76,45,29.78,29.61,3,1,10,0.00
2013-2-28,49,42,35,40,34,29,95,73,48,29.86,29.69,3,0,10,0.00
2013-3-1,50,40,29,35,30,27,93,70,46,29.92,29.84,2,0,6,0.00
2013-3-2,50,40,32,32,28,22,90,63,43,29.92,29.82,2,0,6,0.00
2013-3-3,47,37,30,27,23,19,77,57,40,29.99,29.85,3,0,10,0.00
2013-3-4,51,36,26,24,20,16,75,53,28,30.12,29.98,2,0,11,0.00
2013-3-5,50,42,31,44,35,23,96,80,44,30.10,29.59,2,0,7,0.55
2013-3-6,45,41,36,41,35,31,100,81,64,30.03,29.51,5,1,16,0.02
2013-3-7,50,42,31,36,31,28,93,68,51,30.24,30.02,2,0,7,0.00
2013-3-8,56,43,29,32,28,25,90,59,34,30.30,30.15,3,1,11,0.00
2013-3-9,64,46,31,35,31,27,92,60,30,30.35,30.24,2,0,7,0.00
2013-3-10,68,50,30,35,30,26,93,53,22,30.34,30.22,2,0,9,0.00
2013-3-11,70,56,41,54,45,28,92,67,44,30.26,29.94,3,1,14,0.00
2013-3-12,69,61,49,64,54,37,98,81,57,29.94,29.75,3,1,16,0.83
2013-3-13,58,46,33,37,31,22,93,57,34,30.13,29.94,4,1,13,0.00
2013-3-14,55,41,30,28,22,20,72,50,29,30.24,30.11,2,0,10,0.00
2013-3-15,62,46,27,37,30,22,87,57,36,30.19,29.90,4,1,14,0.00
2013-3-16,78,62,48,53,46,37,72,57,38,29.90,29.63,4,1,12,0.00
2013-3-17,63,50,40,53,45,38,95,82,70,30.20,29.82,4,1,13,0.00
2013-3-18,43,40,38,42,39,36,97,96,94,30.21,29.86,3,0,9,0.22
2013-3-19,67,52,40,49,36,20,98,65,24,30.02,29.82,4,0,13,0.00
2013-3-20,57,46,35,29,22,14,71,40,25,30.12,29.80,3,0,9,0.00
2013-3-21,47,39,32,34,22,13,79,52,32,29.98,29.74,5,0,10,0.00
2013-3-22,51,38,24,26,19,15,77,49,26,30.09,29.98,3,0,9,0.00
2013-3-23,55,43,32,34,29,22,85,61,34,30.07,29.92,1,0,5,0.00
2013-3-24,42,38,33,38,35,30,96,90,72,29.94,29.58,4,1,14,0.55
2013-3-25,49,40,35,39,32,26,96,75,46,29.81,29.56,5,0,14,0.01
2013-3-26,51,43,34,33,29,26,78,59,45,30.11,29.81,2,0,6,0.00
2013-3-27,54,43,33,31,27,24,80,55,34,30.23,30.11,3,0,10,0.00
2013-3-28,59,45,32,31,28,26,84,53,30,30.29,30.15,3,0,10,0.00
2013-3-29,61,45,29,34,29,26,92,59,30,30.34,30.18,3,0,11,0.00
2013-3-30,67,51,34,43,35,30,89,60,29,30.25,30.09,2,0,9,0.00
2013-3-31,69,57,48,58,51,43,100,83,65,30.10,29.80,3,0,12,0.57
2013-4-1,73,60,52,55,49,38,100,71,35,29.98,29.79,4,0,11,0.03
2013-4-2,61,49,35,36,31,24,88,52,26,30.16,29.98,3,0,11,0.00
2013-4-3,61,49,37,33,26,22,70,43,24,30.31,30.14,3,0,10,0.00
2013-4-4,49,42,39,40,33,24,96,71,45,30.38,29.95,4,1,12,0.59
2013-4-5,64,48,40,50,43,39,97,85,53,30.01,29.87,3,0,9,0.04
2013-4-6,65,53,39,41,34,26,96,53,31,30.28,30.01,3,1,10,0.00
2013-4-7,72,55,34,47,40,32,93,62,36,30.29,30.11,3,0,13,0.00
2013-4-8,80,66,53,59,54,44,95,67,42,30.17,30.03,4,1,12,0.00
2013-4-9,86,72,60,62,58,56,92,64,38,30.17,30.04,3,0,9,0.00
2013-4-10,88,75,62,64,60,57,87,63,39,30.08,29.92,4,1,11,0.00
2013-4-11,81,72,63,67,62,58,90,71,49,29.98,29.78,3,1,13,0.00
2013-4-12,80,72,65,71,64,46,97,79,50,29.80,29.58,5,1,19,0.74
2013-4-13,75,63,50,48,44,40,81,53,32,29.99,29.74,3,0,7,0.00
2013-4-14,82,64,44,54,46,42,96,59,25,30.11,30.00,2,0,11,0.00
2013-4-15,72,64,58,60,57,54,94,79,60,30.21,30.03,2,0,10,0.03
2013-4-16,77,64,58,62,58,56,97,83,53,30.31,30.19,1,0,5,0.00
2013-4-17,84,69,56,67,62,55,98,79,53,30.22,30.10,0,0,0,0.00
2013-4-18,80,70,60,65,61,58,95,75,49,30.19,30.04,0,0,0,0.00
2013-4-19,82,71,65,69,66,62,97,85,64,30.05,29.70,0,0,0,0.66
2013-4-20,65,55,44,64,44,36,97,70,39,30.27,29.80,0,0,0,0.12
2013-4-21,62,51,40,44,40,37,95,68,47,30.50,30.27,0,0,0,0.00
2013-4-22,60,49,37,48,40,34,92,73,50,30.50,30.28,0,0,0,0.01
2013-4-23,65,54,49,53,48,44,93,79,57,30.28,30.12,0,0,0,0.00
2013-4-24,77,62,45,59,53,44,98,76,50,30.15,29.97,0,0,0,0.00
2013-4-25,71,61,50,58,49,41,88,65,42,30.27,30.00,0,0,0,0.00
2013-4-26,73,59,46,49,44,37,97,65,29,30.42,30.27,0,0,0,0.00
2013-4-27,75,62,51,53,48,44,84,61,33,30.39,30.26,0,0,0,0.00
2013-4-28,61,58,54,57,51,44,96,80,63,30.26,30.11,0,0,0,0.49
2013-4-29,70,62,55,64,60,54,99,93,78,30.12,29.97,0,0,0,1.34
2013-4-30,65,60,56,61,58,55,100,93,80,30.17,30.00,0,0,0,0.00
2013-5-1,60,58,57,59,57,56,97,94,92,30.33,30.16,0,0,0,0.00
2013-5-2,61,58,54,58,56,51,97,92,86,30.35,30.26,0,0,0,0.00
2013-5-3,68,57,49,57,50,45,96,80,52,30.28,30.18,0,0,0,0.00
2013-5-4,61,54,49,54,50,46,92,84,73,30.23,30.09,0,0,0,0.00
2013-5-5,59,55,49,56,51,47,93,89,83,30.12,30.00,0,0,0,0.00
2013-5-6,66,60,56,65,59,54,99,96,90,30.02,29.83,0,0,0,2.06
2013-5-7,68,59,52,62,56,51,100,93,71,29.95,29.85,0,0,0,0.58
2013-5-8,71,60,50,63,56,50,99,90,63,30.01,29.92,0,0,0,0.07
2013-5-9,79,66,55,64,59,55,100,81,48,30.06,29.97,0,0,0,0.01
2013-5-10,86,71,55,66,61,54,98,74,44,30.06,29.92,0,0,0,0.00
2013-5-11,81,71,66,71,65,60,98,81,56,29.95,29.77,0,0,0,0.38
2013-5-12,73,64,53,66,54,40,98,72,40,30.02,29.78,0,0,0,0.01
2013-5-13,66,55,43,46,41,36,93,63,35,30.19,30.02,0,0,0,0.00
2013-5-14,71,56,39,50,42,37,96,64,34,30.26,30.08,0,0,0,0.00
2013-5-15,86,68,51,66,57,46,87,68,46,30.08,29.88,0,0,0,0.00
2013-5-16,85,74,62,66,63,60,95,70,45,29.97,29.88,0,0,0,0.00
2013-5-17,88,74,61,72,64,59,97,74,43,30.08,29.96,0,0,0,0.00
2013-5-18,77,69,63,70,65,60,96,88,74,30.17,30.06,0,0,0,0.22
2013-5-19,76,68,63,71,66,62,99,95,82,30.15,30.06,0,0,0,1.03
2013-5-20,76,70,67,73,69,66,99,96,85,30.11,30.02,0,0,0,0.96
2013-5-21,83,74,68,74,70,67,98,88,67,30.04,29.94,0,0,0,0.00
2013-5-22,84,74,69,71,69,67,96,84,63,30.02,29.89,0,0,0,0.00
2013-5-23,82,73,69,71,69,67,97,87,66,29.95,29.80,0,0,0,0.01
2013-5-24,70,64,53,68,55,41,98,76,46,30.18,29.79,0,0,0,0.06
2013-5-25,72,57,42,51,44,39,95,65,31,30.27,30.13,0,0,0,0.00
2013-5-26,72,59,45,56,48,42,94,72,38,30.29,30.17,0,0,0,0.00
2013-5-27,80,65,49,61,54,47,98,72,43,30.29,30.15,0,0,0,0.00
2013-5-28,84,71,58,69,63,55,95,76,58,30.25,30.13,0,0,0,0.00
2013-5-29,86,74,62,68,65,60,97,75,50,30.24,30.15,0,0,0,0.00
2013-5-30,87,74,62,71,66,60,97,76,49,30.27,30.17,0,0,0,0.00
2013-5-31,87,76,65,72,68,64,98,78,48,30.22,30.09,0,0,0,0.00
2013-6-1,88,78,67,71,68,65,97,74,50,30.14,30.01,0,0,0,0.00
2013-6-2,85,77,69,72,68,66,92,75,57,30.05,29.89,0,0,0,0.08
2013-6-3,81,73,68,73,71,67,98,91,72,29.94,29.81,0,0,0,0.24
2013-6-4,76,70,65,67,65,62,98,86,68,30.10,29.93,0,0,0,0.00
2013-6-5,82,71,60,66,62,58,97,75,49,30.15,30.02,0,0,0,0.00
2013-6-6,74,70,65,72,66,58,98,90,68,30.05,29.82,0,0,0,0.59
2013-6-7,75,70,68,74,70,68,99,99,97,29.84,29.48,0,0,0,2.71
2013-6-8,82,73,65,73,69,64,99,89,68,30.09,29.80,0,0,0,0.04
2013-6-9,87,76,65,75,70,64,99,85,60,30.16,30.05,0,0,0,0.04
2013-6-10,81,74,71,77,72,70,98,94,82,30.10,29.88,0,0,0,0.55
2013-6-11,84,76,70,71,69,66,94,80,57,29.94,29.88,0,0,0,0.00
2013-6-12,89,77,64,77,71,62,98,83,60,29.96,29.85,0,0,0,0.00
2013-6-13,94,78,68,80,72,66,98,84,51,29.85,29.58,0,0,0,0.08
2013-6-14,78,69,61,68,62,59,97,78,55,30.00,29.70,0,0,0,0.00
2013-6-15,84,71,57,70,63,56,99,79,47,30.12,30.00,0,0,0,0.00
2013-6-16,87,75,65,73,66,58,93,74,59,30.11,29.99,0,0,0,0.00
2013-6-17,82,76,72,75,70,66,94,82,71,30.02,29.91,0,0,0,0.10
2013-6-18,82,74,69,74,71,68,98,91,76,29.96,29.74,0,0,0,1.12
2013-6-19,79,71,65,71,67,64,99,88,68,30.12,29.86,0,0,0,0.01
2013-6-20,82,72,63,67,64,56,97,78,54,30.25,30.12,0,0,0,0.00
2013-6-21,82,70,56,68,60,54,96,74,45,30.26,30.19,0,0,0,0.00
2013-6-22,81,72,68,73,70,67,97,91,74,30.22,30.11,0,0,0,0.04
2013-6-23,84,76,67,77,72,66,99,88,71,30.21,30.12,0,0,0,0.02
2013-6-24,87,78,71,77,73,70,97,86,67,30.20,30.07,0,0,0,0.00
2013-6-25,88,77,70,78,72,69,96,85,68,30.12,29.98,0,0,0,0.00
2013-6-26,91,77,69,77,72,68,97,84,59,30.02,29.87,0,0,0,0.22
2013-6-27,88,77,68,78,72,67,98,87,63,29.91,29.69,0,0,0,0.00
2013-6-28,92,79,71,77,73,69,97,84,58,29.75,29.56,0,0,0,0.84
2013-6-29,84,75,69,76,72,69,99,91,69,29.72,29.58,0,0,0,1.04
2013-6-30,86,75,71,78,73,70,99,92,70,29.86,29.70,0,0,0,1.60
2013-7-1,81,74,69,76,72,68,99,93,81,29.99,29.83,0,0,0,1.29
2013-7-2,76,73,71,74,72,70,98,97,92,30.18,29.99,0,0,0,0.47
2013-7-3,85,77,73,78,74,72,99,93,73,30.24,30.15,0,0,0,0.86
2013-7-4,88,79,72,77,74,70,99,86,59,30.28,30.17,0,0,0,0.00
2013-7-5,89,79,71,77,74,70,98,83,61,30.27,30.15,0,0,0,0.00
2013-7-6,87,79,73,77,74,72,97,85,68,30.25,30.11,0,0,0,0.00
2013-7-7,88,78,68,77,73,67,98,86,66,30.19,30.05,0,0,0,0.03
2013-7-8,86,76,71,77,73,70,99,91,69,30.17,30.08,0,0,0,0.61
2013-7-9,87,76,71,79,74,70,99,94,72,30.15,30.06,0,0,0,0.81
2013-7-10,87,78,72,78,74,70,99,89,71,30.10,29.94,0,0,0,0.44
2013-7-11,81,74,72,76,73,71,99,96,84,29.99,29.87,0,0,0,0.25
2013-7-12,74,72,70,72,71,69,99,96,90,30.02,29.87,0,0,0,0.02
2013-7-13,77,73,70,76,72,69,99,97,94,30.18,30.01,0,0,0,1.01
2013-7-14,87,78,70,77,73,70,100,88,69,30.30,30.19,0,0,0,0.01
2013-7-15,90,78,69,78,73,68,99,85,56,30.32,30.24,0,0,0,0.00
2013-7-16,93,80,69,81,74,68,99,83,59,30.26,30.16,0,0,0,0.00
2013-7-17,92,82,73,79,75,72,98,82,58,30.22,30.09,0,0,0,0.00
2013-7-18,94,82,74,81,77,73,98,85,57,30.13,30.02,0,0,0,0.01
2013-7-19,91,81,74,80,76,73,99,84,63,30.08,29.97,0,0,0,0.00
2013-7-20,88,80,75,79,75,72,92,85,69,30.02,29.90,0,0,0,0.00
2013-7-21,88,78,74,78,74,71,96,87,66,29.99,29.89,0,0,0,0.00
2013-7-22,86,78,72,78,74,71,98,88,72,29.95,29.80,0,0,0,0.00
2013-7-23,88,80,75,77,74,72,93,82,63,29.83,29.71,0,0,0,0.00
2013-7-24,92,80,70,78,72,69,98,80,53,29.84,29.71,0,0,0,0.00
2013-7-25,78,73,68,71,69,66,95,88,77,30.03,29.81,0,0,0,0.01
2013-7-26,84,73,62,71,65,61,98,79,50,30.11,30.01,0,0,0,0.00
2013-7-27,86,74,66,74,69,64,99,86,57,30.06,29.92,0,0,0,0.09
2013-7-28,87,76,70,75,72,69,99,86,61,29.99,29.91,0,0,0,0.00
2013-7-29,87,75,69,73,70,64,98,84,56,30.15,29.98,0,0,0,0.06
2013-7-30,88,75,62,74,67,60,95,78,52,30.22,30.13,0,0,0,0.00
2013-7-31,82,74,71,75,71,69,98,92,75,30.14,30.00,0,0,0,0.60
2013-8-1,84,75,70,76,72,69,99,92,72,30.02,29.85,0,0,0,0.21
2013-8-2,89,76,67,75,70,66,99,82,57,30.01,29.89,0,0,0,0.00
2013-8-3,88,76,70,78,73,69,99,92,71,30.01,29.89,0,0,0,0.57
2013-8-4,82,73,66,72,68,63,99,86,58,30.03,29.88,0,0,0,0.01
2013-8-5,82,72,62,72,65,61,98,81,52,30.10,30.00,0,0,0,0.00
2013-8-6,82,74,68,72,69,65,97,84,69,30.06,29.99,0,0,0,0.15
2013-8-7,86,76,68,75,70,67,97,83,59,30.10,30.01,0,0,0,0.00
2013-8-8,88,79,70,78,73,69,98,84,61,30.06,29.98,0,0,0,0.00
2013-8-9,92,81,74,79,75,72,97,83,62,30.04,29.96,0,0,0,0.00
2013-8-10,92,79,74,82,76,73,97,90,65,30.09,29.99,0,0,0,0.60
2013-8-11,92,80,72,79,75,72,99,87,59,30.10,29.99,0,0,0,0.01
2013-8-12,91,80,73,78,74,72,99,84,58,30.04,29.92,0,0,0,0.00
2013-8-13,87,77,71,80,74,70,99,91,72,29.97,29.76,0,0,0,0.83
2013-8-14,74,70,61,73,66,58,97,86,72,30.09,29.80,0,0,0,0.00
2013-8-15,76,65,59,65,60,57,95,86,60,30.17,30.07,0,0,0,0.00
2013-8-16,71,65,59,64,62,58,96,89,74,30.18,30.10,0,0,0,0.00
2013-8-17,71,67,63,71,66,61,99,95,91,30.18,30.12,0,0,0,0.09
2013-8-18,80,72,67,73,69,66,99,91,73,30.21,30.11,0,0,0,0.03
2013-8-19,74,69,66,72,68,65,99,96,90,30.20,30.09,0,0,0,0.69
2013-8-20,83,74,66,75,71,66,99,91,73,30.19,30.10,0,0,0,0.00
2013-8-21,86,76,71,79,73,70,99,93,71,30.23,30.09,0,0,0,0.05
2013-8-22,89,78,70,76,72,69,99,85,55,30.14,29.98,0,0,0,0.00
2013-8-23,87,76,68,76,72,66,99,87,65,30.06,29.91,0,0,0,0.00
2013-8-24,82,72,64,67,64,61,95,78,51,30.30,30.07,0,0,0,0.00
2013-8-25,79,69,61,66,62,58,97,80,50,30.39,30.28,0,0,0,0.00
2013-8-26,84,68,54,67,60,53,99,79,45,30.33,30.11,0,0,0,0.00
2013-8-27,88,74,61,76,68,59,96,84,58,30.12,29.95,0,0,0,0.00
2013-8-28,81,75,68,77,73,67,98,93,82,29.98,29.85,0,0,0,0.01
2013-8-29,86,78,72,76,73,70,96,86,68,30.00,29.82,0,0,0,0.00
2013-8-30,89,75,66,72,68,65,98,81,49,30.06,29.93,0,0,0,0.00
2013-8-31,89,76,66,74,70,65,99,83,57,29.97,29.85,0,0,0,0.00
2013-9-1,88,76,70,79,73,69,98,91,68,29.89,29.77,0,0,0,1.85
2013-9-2,88,78,70,78,74,70,99,89,66,29.88,29.79,0,0,0,0.00
2013-9-3,88,77,70,78,73,69,99,90,68,29.92,29.79,0,0,0,0.04
2013-9-4,85,74,68,73,69,66,98,85,63,30.08,29.92,0,0,0,0.00
2013-9-5,88,74,63,70,65,60,99,79,39,30.09,30.02,0,0,0,0.00
2013-9-6,81,71,63,69,63,58,97,78,54,30.17,30.07,0,0,0,0.00
2013-9-7,83,70,59,69,64,58,97,81,54,30.14,29.97,0,0,0,0.00
2013-9-8,89,74,62,73,66,61,98,81,46,29.99,29.90,0,0,0,0.00
2013-9-9,87,75,65,73,69,64,98,83,58,30.15,29.98,0,0,0,0.00
2013-9-10,91,77,67,74,70,66,99,81,52,30.23,30.13,0,0,0,0.00
2013-9-11,91,76,66,74,70,65,98,82,53,30.20,30.07,0,0,0,0.00
2013-9-12,91,78,69,76,71,67,97,82,56,30.07,29.79,0,0,0,0.00
2013-9-13,85,75,64,71,65,58,95,75,47,29.88,29.74,0,0,0,0.00
2013-9-14,78,66,59,60,54,50,89,67,44,30.14,29.88,0,0,0,0.00
2013-9-15,82,66,53,65,58,51,96,77,48,30.24,30.12,0,0,0,0.00
2013-9-16,85,72,63,73,65,60,99,81,48,30.20,30.03,0,0,0,0.07
2013-9-17,77,66,58,61,56,52,92,72,46,30.32,30.18,0,0,0,0.00
2013-9-18,75,60,51,60,53,49,96,80,48,30.31,30.18,0,0,0,0.00
2013-9-19,75,64,55,65,59,53,95,84,56,30.20,30.09,0,0,0,0.00
2013-9-20,71,66,62,67,64,60,98,94,85,30.10,29.97,0,0,0,0.45
2013-9-21,74,69,66,71,68,65,98,95,87,29.97,29.72,0,0,0,0.61
2013-9-22,76,67,60,66,62,57,99,86,59,29.89,29.71,0,0,0,0.47
2013-9-23,72,62,55,60,55,52,95,80,56,30.08,29.89,0,0,0,0.00
2013-9-24,75,62,53,63,57,51,97,84,59,30.11,29.95,0,0,0,0.00
2013-9-25,74,63,52,65,59,51,99,88,63,29.96,29.87,0,0,0,0.00
2013-9-26,76,65,58,62,59,56,98,82,52,30.04,29.87,0,0,0,0.00
2013-9-27,73,62,55,62,57,54,100,86,62,30.19,30.04,0,0,0,0.00
2013-9-28,71,61,53,60,56,52,98,84,64,30.26,30.17,0,0,0,0.00
2013-9-29,75,62,52,61,56,51,98,83,52,30.18,30.03,0,0,0,0.00
2013-9-30,76,62,52,63,56,51,98,84,52,30.11,30.00,0,0,0,0.00
2013-10-1,85,65,51,68,59,50,99,84,47,30.13,30.02,0,0,0,0.00
2013-10-2,86,68,56,67,61,55,99,80,44,30.13,30.03,0,0,0,0.00
2013-10-3,87,70,58,69,63,56,98,81,47,30.13,30.05,0,0,0,0.00
2013-10-4,88,72,60,70,65,59,99,82,47,30.13,30.04,0,0,0,0.00
2013-10-5,91,73,61,72,66,60,99,81,45,30.11,30.02,0,0,0,0.00
2013-10-6,84,72,62,74,68,61,98,89,66,30.07,29.94,0,0,0,0.06
2013-10-7,74,70,63,72,69,62,99,97,92,29.99,29.85,0,0,0,1.50
2013-10-8,63,60,58,61,52,48,93,78,70,30.20,29.98,0,0,0,0.00
2013-10-9,61,58,55,57,54,51,97,88,79,30.19,30.08,0,0,0,0.09
2013-10-10,60,56,54,59,56,53,100,97,95,30.08,29.93,0,0,0,0.06
2013-10-11,65,61,59,63,60,58,98,95,90,29.97,29.90,0,0,0,0.01
2013-10-12,68,64,61,66,63,60,98,96,91,30.08,29.95,0,0,0,0.00
2013-10-13,66,63,62,65,63,61,99,97,94,30.21,30.07,0,0,0,0.05
2013-10-14,64,62,57,62,60,56,99,96,90,30.24,30.18,0,0,0,0.00
2013-10-15,69,61,53,64,58,52,99,91,76,30.20,30.06,0,0,0,0.00
2013-10-16,70,65,60,65,62,60,98,92,79,30.07,29.95,0,0,0,0.00
2013-10-17,75,66,59,67,63,58,99,90,71,29.97,29.84,0,0,0,0.00
2013-10-18,69,62,55,66,56,50,97,80,56,30.04,29.88,0,0,0,0.00
2013-10-19,70,62,58,66,60,56,97,94,87,29.98,29.81,0,0,0,0.01
2013-10-20,66,55,45,59,48,43,97,79,46,30.13,29.90,0,0,0,0.01
2013-10-21,70,52,39,54,46,38,99,82,38,30.18,30.02,0,0,0,0.00
2013-10-22,64,57,50,60,54,49,97,93,82,30.02,29.82,0,0,0,0.00
2013-10-23,66,58,48,58,49,38,100,76,45,30.00,29.68,0,0,0,0.00
2013-10-24,59,47,37,43,38,35,94,72,44,30.19,30.00,0,0,0,0.00
2013-10-25,57,45,34,40,36,31,93,71,40,30.38,30.19,0,0,0,0.00
2013-10-26,60,43,30,42,34,28,97,74,40,30.37,30.08,0,0,0,0.00
2013-10-27,67,53,41,49,43,38,95,73,42,30.14,30.06,0,0,0,0.00
2013-10-28,72,55,43,56,50,42,96,83,49,30.27,30.13,0,0,0,0.00
2013-10-29,72,59,50,60,54,48,98,86,59,30.34,30.25,0,0,0,0.00
2013-10-30,74,61,54,61,57,52,98,89,62,30.30,30.16,0,0,0,0.00
2013-10-31,74,64,55,64,58,54,98,83,61,30.19,29.93,0,0,0,0.00
2013-11-1,71,68,62,68,66,62,98,92,81,29.93,29.67,0,0,0,1.04
2013-11-2,72,61,51,61,54,45,98,82,41,29.93,29.68,0,0,0,0.01
2013-11-3,63,50,40,49,42,38,97,76,46,30.38,29.93,0,0,0,0.00
2013-11-4,55,45,38,39,36,32,90,70,46,30.58,30.38,0,0,0,0.00
2013-11-5,57,48,38,51,43,34,92,83,70,30.56,30.44,0,0,0,0.00
2013-11-6,72,56,44,58,51,43,97,85,56,30.45,30.12,0,0,0,0.00
2013-11-7,68,59,47,63,54,35,100,83,56,30.12,29.92,0,0,0,0.09
2013-11-8,59,45,34,36,33,30,93,67,35,30.34,30.11,0,0,0,0.00
2013-11-9,58,44,32,40,34,30,96,74,39,30.39,30.19,0,0,0,0.00
2013-11-10,72,54,40,45,39,32,89,60,31,30.25,30.06,0,0,0,0.00
2013-11-11,61,45,32,37,34,29,93,67,35,30.36,30.15,0,0,0,0.00
2013-11-12,60,41,34,44,34,21,96,77,45,30.44,30.06,0,0,0,0.00
2013-11-13,46,35,27,24,22,19,87,60,36,30.55,30.44,0,0,0,0.00
2013-11-14,59,38,23,31,26,21,95,67,30,30.49,30.36,0,0,0,0.00
2013-11-15,62,46,29,46,37,26,93,74,45,30.38,30.23,0,0,0,0.00
2013-11-16,67,56,49,60,53,46,97,90,75,30.28,30.22,0,0,0,0.00
2013-11-17,70,61,53,66,58,52,99,92,76,30.23,29.90,0,0,0,0.04
2013-11-18,76,65,53,67,54,34,98,69,42,29.97,29.80,0,0,0,0.01
2013-11-19,57,48,41,34,32,30,75,54,37,30.33,29.96,0,0,0,0.00
2013-11-20,53,44,37,40,34,29,86,67,51,30.47,30.32,0,0,0,0.00
2013-11-21,60,50,41,50,44,38,92,81,67,30.52,30.40,0,0,0,0.00
2013-11-22,70,58,46,61,54,44,96,86,72,30.41,30.08,0,0,0,0.03
2013-11-23,62,55,42,60,45,25,97,71,42,30.18,30.03,0,0,0,0.00
2013-11-24,42,33,25,26,14,8,70,46,29,30.57,30.17,0,0,0,0.00
2013-11-25,43,31,19,23,16,12,86,56,28,30.61,30.40,0,0,0,0.00
2013-11-26,65,45,34,65,38,20,99,78,50,30.42,29.59,0,0,0,1.02
2013-11-27,51,40,30,49,38,22,100,91,69,30.17,29.51,0,0,0,0.69
2013-11-28,46,33,24,28,23,19,91,71,42,30.51,30.17,0,0,0,0.00
2013-11-29,49,35,24,31,27,23,96,74,45,30.67,30.49,0,0,0,0.00
2013-11-30,49,36,28,36,30,24,93,77,57,30.67,30.39,0,0,0,0.00
2013-12-1,59,40,27,39,33,26,96,79,42,30.39,30.05,0,0,0,0.00
2013-12-2,60,43,33,47,38,32,95,84,55,30.05,29.84,0,0,0,0.00
2013-12-3,58,46,32,48,41,30,98,84,64,30.02,29.89,0,0,0,0.00
2013-12-4,62,56,51,57,53,48,97,91,84,30.10,30.00,0,0,0,0.00
2013-12-5,66,61,52,64,60,52,99,97,93,30.14,30.04,0,0,0,0.07
2013-12-6,78,70,65,66,64,63,97,82,63,30.07,29.96,0,0,0,0.00
2013-12-7,70,48,42,66,44,33,96,85,69,30.47,29.98,0,0,0,0.09
2013-12-8,42,36,33,34,32,30,97,88,68,30.49,30.31,0,0,0,0.05
2013-12-9,45,40,35,45,39,34,98,98,97,30.31,30.08,0,0,0,0.30
2013-12-10,46,42,30,46,41,28,99,95,79,30.34,29.94,0,0,0,0.44
2013-12-11,50,35,24,33,28,23,97,79,40,30.47,30.31,0,0,0,0.01
2013-12-12,46,34,26,29,24,18,95,71,33,30.44,30.29,0,0,0,0.00
2013-12-13,52,35,23,31,25,20,93,72,34,30.42,30.29,0,0,0,0.00
2013-12-14,48,40,36,42,36,30,97,86,55,30.33,29.80,0,0,0,0.71
2013-12-15,54,43,34,45,37,30,98,82,53,30.08,29.72,0,0,0,0.03
2013-12-16,56,40,29,38,33,27,95,78,47,30.20,30.08,0,0,0,0.00
2013-12-17,62,45,30,42,36,29,97,74,43,30.15,29.88,0,0,0,0.00
2013-12-18,50,39,29,39,27,23,89,65,36,30.31,30.04,0,0,0,0.00
2013-12-19,63,43,27,32,28,24,91,61,29,30.34,30.23,0,0,0,0.00
2013-12-20,67,53,39,55,45,32,94,77,65,30.26,30.12,0,0,0,0.00
2013-12-21,74,60,47,66,56,45,98,86,67,30.17,30.04,0,0,0,0.00
2013-12-22,78,70,64,69,65,62,97,86,68,30.12,30.02,0,0,0,0.45
2013-12-23,66,60,47,65,59,43,99,97,87,30.16,29.99,0,0,0,1.52
2013-12-24,48,41,30,43,32,18,96,71,53,30.47,30.13,0,0,0,0.00
2013-12-25,40,30,24,22,18,14,84,62,38,30.58,30.43,0,0,0,0.00
2013-12-26,53,35,24,33,28,21,94,77,41,30.43,30.26,0,0,0,0.01
2013-12-27,54,36,26,29,26,24,93,73,33,30.49,30.38,0,0,0,0.00
2013-12-28,60,41,25,38,30,23,95,71,33,30.42,30.18,0,0,0,0.00
2013-12-29,61,49,42,61,47,36,99,93,61,30.18,29.70,0,0,0,1.70
2013-12-30,53,44,34,47,40,33,99,87,68,30.15,29.93,0,0,0,0.00
2013-12-31,51,41,30,40,33,26,96,76,38,30.37,30.13,0,0,0,0.01
2014-1-1,51,38,30,33,30,28,94,76,41,30.44,30.17,0,0,0,0.00
2014-1-2,48,41,34,44,38,32,97,89,76,30.17,29.58,0,0,0,0.39